Content
SEND FEEDBACK

Daily
Averages
Monthly
Summary
United States of America

BOILING SPRING LAKES, NORTH CAROLINA


Home > North America > United States > North Carolina
Elevation: 20 feet     Latitude: 34 00N     Longitude: 078 01W

WEATHER
 
SELECT A DAY
Number of Records: 136,557;   Date Range: 8/21/01 - 8/12/14
 
SHARE

PRINT THIS DATA

[ ← Previous Day ]
WEATHER ALMANAC - JULY 13, 2013
[ Next Day → ]
[ °C ]   °F
Weather ElementAverageHighLow
Temperature76.6 °F81.9 °F (2:15 pm)70.7 °F (1:15 am)
Dewpoint72.4 °F74.7 °F (11:35 am)69.8 °F (1:15 am)
Humidity87 %97 % (1:15 am)74 % (11:35 pm)
Barometer30.05 in30.17 in (11:55 pm)29.98 in (1:55 am)
Wind Speed7.9 mph18.4 mph (4:35 pm)
Wind Gust28.8 mph (4:35 pm)
Weather ElementAverage
Visibility8.6 mi
Wind DirectionESE (111.5 °)

Weather ElementTotal
Precipitation2.65 in
Cooling Degree Days11.3 (Base 65)
Growing Degree Days26.3 (Base 50)
Averaged from 71 records on July 13, 2013
WEATHER CONDITIONS BREAKOUT
WIND DIRECTION BREAKOUT
WEATHER BY HOUR - JULY 13, 2013
[ °C ]   °F
Local TimeTemperatureDewpointHumidityBarometerVisibilityWind DirectionWind SpeedGust SpeedPrecipitationEventsConditions
12:35 AM72.5 °F71.1 °F95 %30.00 in4.0 miCalm0.10 inRainHeavy Rain
12:55 AM71.8 °F70.7 °F96 %29.99 in2.0 miNW (320°)4.6 mph0.27 inRainHeavy Rain
1:15 AM70.7 °F69.8 °F97 %29.99 in0.8 miEast (80°)8.1 mph0.50 inRainHeavy Rain
1:35 AM72.5 °F71.1 °F95 %29.99 in7.0 miCalm0.65 inRainLight Rain
1:55 AM72.5 °F71.2 °F96 %29.98 in10.0 miEast (80°)3.5 mph0.65 inMostly Cloudy
2:15 AM72.3 °F71.1 °F96 %29.98 in10.0 miCalmScattered Clouds
2:35 AM71.8 °F70.7 °F96 %29.98 in10.0 miCalmClear
2:55 AM71.2 °F70.3 °F97 %29.98 in7.0 miCalmScattered Clouds
3:15 AM71.2 °F70.2 °F96 %29.99 in10.0 miCalmScattered Clouds
3:35 AM71.6 °F70.7 °F97 %29.99 in10.0 miCalmScattered Clouds
3:55 AM71.6 °F70.7 °F97 %29.99 in10.0 miNNE (20°)3.5 mphScattered Clouds
4:15 AM72.0 °F71.1 °F97 %29.98 in10.0 miNorth (10°)5.8 mphMostly Cloudy
4:35 AM71.6 °F70.7 °F97 %29.98 in7.0 miNNE (30°)5.8 mphMostly Cloudy
4:55 AM72.0 °F71.1 °F97 %29.99 in7.0 miNNW (330°)3.5 mph0.01 inLight Drizzle
5:15 AM71.6 °F70.7 °F97 %29.99 in7.0 miNorth (10°)4.6 mphMostly Cloudy
5:35 AM71.2 °F70.3 °F97 %30.00 in7.0 miNNE (20°)3.5 mphScattered Clouds
5:55 AM71.6 °F70.7 °F97 %30.00 in7.0 miCalmMostly Cloudy
6:15 AM72.5 °F71.6 °F97 %30.00 in10.0 miCalmMostly Cloudy
6:35 AM72.7 °F71.8 °F97 %30.00 in10.0 miCalmScattered Clouds
6:55 AM73.8 °F72.9 °F97 %30.01 in10.0 miESE (110°)3.5 mphScattered Clouds
7:15 AM76.1 °F74.3 °F94 %30.01 in10.0 miESE (110°)4.6 mphMostly Cloudy
7:35 AM76.1 °F73.6 °F92 %30.03 in10.0 miESE (120°)5.8 mphMostly Cloudy
7:55 AM76.1 °F73.4 °F91 %30.03 in10.0 miESE (110°)3.5 mphMostly Cloudy
8:15 AM76.6 °F73.8 °F91 %30.03 in10.0 miCalmScattered Clouds
8:35 AM77.0 °F73.0 °F88 %30.04 in10.0 miSE (140°)16.1 mph24.2 mphRainLight Rain
8:55 AM74.3 °F72.5 °F94 %30.05 in4.0 miSE (140°)4.6 mph0.08 inRainLight Rain
9:15 AM76.3 °F73.8 °F92 %30.06 in7.0 miSE (140°)3.5 mphMostly Cloudy
9:35 AM78.1 °F73.9 °F87 %30.05 in7.0 miSE (140°)8.1 mphScattered Clouds
9:55 AM80.1 °F73.8 °F81 %30.05 in10.0 miSE (130°)9.2 mphScattered Clouds
10:15 AM79.9 °F73.0 °F80 %30.05 in10.0 miESE (120°)5.8 mphScattered Clouds
10:35 AM79.7 °F73.2 °F80 %30.04 in10.0 miESE (120°)8.1 mphScattered Clouds
10:55 AM76.1 °F73.2 °F91 %30.05 in1.8 miESE (110°)8.1 mph21.9 mph0.09 inRainLight Rain
11:15 AM77.2 °F73.2 °F88 %30.05 in4.0 miESE (120°)5.8 mph0.02 inRainRain
11:35 AM78.3 °F74.7 °F89 %30.06 in7.0 miSE (130°)5.8 mph0.02 inScattered Clouds
11:55 AM79.3 °F73.9 °F83 %30.06 in10.0 miSE (140°)8.1 mph18.4 mph0.02 inScattered Clouds
12:15 PM80.1 °F73.6 °F81 %30.06 in10.0 miSE (140°)12.7 mph21.9 mphScattered Clouds
12:35 PM76.6 °F72.3 °F86 %30.06 in5.0 miSE (130°)17.3 mph25.3 mph0.02 inRainHeavy Rain
12:55 PM77.9 °F74.1 °F88 %30.06 in7.0 miSE (130°)10.4 mph17.3 mph0.14 inScattered Clouds
1:15 PM80.6 °F74.3 °F81 %30.06 in10.0 miSE (140°)12.7 mph18.4 mphClear
1:35 PM81.7 °F74.3 °F78 %30.06 in10.0 miSE (140°)9.2 mph19.6 mphScattered Clouds
1:55 PM81.0 °F74.3 °F80 %30.06 in10.0 miSE (140°)12.7 mph21.9 mphScattered Clouds
2:15 PM81.9 °F73.6 °F76 %30.06 in10.0 miSE (130°)15.0 mph24.2 mphScattered Clouds
2:35 PM78.4 °F74.5 °F88 %30.07 in7.0 miSE (130°)12.7 mph18.4 mph0.01 inScattered Clouds
2:55 PM76.3 °F73.8 °F92 %30.06 in5.0 miSSE (150°)10.4 mph18.4 mph0.04 inRainLight Rain
3:15 PM79.3 °F74.7 °F86 %30.05 in10.0 miSE (140°)8.1 mph18.4 mphScattered Clouds
3:35 PM79.7 °F74.3 °F83 %30.05 in10.0 miSSE (150°)9.2 mph17.3 mphScattered Clouds
3:55 PM81.3 °F74.5 °F80 %30.04 in10.0 miSE (140°)13.8 mph24.2 mphScattered Clouds
4:15 PM81.3 °F73.9 °F78 %30.03 in10.0 miSE (130°)12.7 mph23.0 mphScattered Clouds
4:35 PM79.7 °F73.2 °F80 %30.04 in10.0 miESE (120°)18.4 mph28.8 mphScattered Clouds
4:55 PM79.3 °F74.5 °F85 %30.05 in7.0 miSSE (160°)12.7 mph24.2 mphScattered Clouds
5:15 PM76.6 °F73.9 °F91 %30.06 in4.0 miSSE (150°)15.0 mph25.3 mph0.01 inRainLight Rain
5:35 PM77.4 °F73.4 °F88 %30.06 in10.0 miSSE (160°)11.5 mph17.3 mph0.01 inScattered Clouds
5:55 PM79.5 °F73.4 °F81 %30.07 in10.0 miSSE (150°)11.5 mph25.3 mph0.01 inScattered Clouds
6:15 PM79.3 °F74.3 °F84 %30.07 in10.0 miSSE (150°)15.0 mph20.7 mphScattered Clouds
6:35 PM79.3 °F73.6 °F82 %30.08 in10.0 miSSE (150°)12.7 mph23.0 mphScattered Clouds
6:55 PM79.3 °F73.2 °F81 %30.09 in7.0 miSE (140°)13.8 mph21.9 mphClear
7:15 PM79.3 °F72.5 °F79 %30.10 in10.0 miSE (140°)10.4 mph21.9 mphScattered Clouds
7:35 PM79.3 °F72.1 °F79 %30.10 in10.0 miSSE (150°)12.7 mph19.6 mphScattered Clouds
7:55 PM78.3 °F71.8 °F80 %30.11 in10.0 miSSE (150°)10.4 mph17.3 mphScattered Clouds
8:15 PM78.3 °F72.0 °F81 %30.11 in10.0 miSE (140°)8.1 mph17.3 mphScattered Clouds
8:35 PM78.4 °F72.0 °F80 %30.11 in10.0 miSE (140°)10.4 mph16.1 mphScattered Clouds
8:55 PM78.1 °F71.6 °F80 %30.11 in10.0 miSE (140°)12.7 mph19.6 mphScattered Clouds
9:15 PM77.9 °F71.2 °F80 %30.12 in10.0 miSSE (150°)10.4 mph17.3 mphScattered Clouds
9:35 PM77.9 °F71.1 °F79 %30.13 in10.0 miSSE (150°)12.7 mph18.4 mphScattered Clouds
9:55 PM77.9 °F71.6 °F81 %30.14 in10.0 miSE (140°)10.4 mph18.4 mphScattered Clouds
10:15 PM77.9 °F70.9 °F79 %30.15 in10.0 miSE (140°)10.4 mph19.6 mphScattered Clouds
10:35 PM78.1 °F70.7 °F78 %30.15 in10.0 miSSE (150°)10.4 mph17.3 mphScattered Clouds
10:55 PM78.1 °F70.7 °F78 %30.16 in10.0 miSSE (150°)8.1 mph17.3 mphScattered Clouds
11:15 PM78.3 °F70.0 °F76 %30.16 in10.0 miSSE (150°)8.1 mphScattered Clouds
11:35 PM78.6 °F69.8 °F74 %30.16 in10.0 miSE (140°)9.2 mph18.4 mphScattered Clouds
11:55 PM78.6 °F70.0 °F75 %30.17 in10.0 miSE (140°)6.9 mphScattered Clouds
Hourly data recorded from KSUT, located miles away from Boiling Spring Lakes, North Carolina







STORIES FROM OUR PARTNERS